Penn Yan, NY

12:26 AM EDT on May 26, 2017 (GMT -0400)
Penn Yan

Weather History for KPEO - May, 2014

Change the Weather History Date:

Friday, May 16, 2014

  Actual Average (KITH) Record (KITH)
Temperature  
Mean Temperature 55 °F -  
Max Temperature 64 °F 68 °F 89 °F (1998)
Min Temperature 45 °F 44 °F 30 °F (1936)
Degree Days  
Heating Degree Days 10    
Growing Degree Days 5 (Base 50)    
Moisture  
Dew Point 49 °F    
Average Humidity 88    
Maximum Humidity 96    
Minimum Humidity 71    
Precipitation  
Precipitation 1.11 in - - ()
Sea Level Pressure  
Sea Level Pressure 29.89 in    
Wind  
Wind Speed 4 mph (NW)    
Max Wind Speed 10 mph    
Max Gust Speed 17 mph    
Visibility 6 miles    
Events Rain    
Averages and records for this station are not official NWS values.
T = Trace of Precipitation, MM = Missing Value Source: NWS Daily Summary

Daily Weather History Graph

Daily Weather History Graph

Search for Another Location

Airport or City:

Trip Planner

Search our weather history database for the weather conditions in past years. The results will help you decide how hot, cold, wet, or windy it might be!

Date:

Astronomy

May. 16, 2014 Rise Set
Actual Time 5:45 AM EDT 8:24 PM EDT
Civil Twilight 5:12 AM EDT 8:57 PM EDT
Nautical Twilight 4:31 AM EDT 9:38 PM EDT
Astronomical Twilight 3:45 AM EDT 10:24 PM EDT
Moon 10:29 PM EDT (5/16) 7:24 AM EDT (5/16)
Length of Visible Light 15h 44m
Length of Day
14h 39m
Waning Gibbous, 95% of the Moon is Illuminated
May 16
Waning Gibbous
May 21
Last Quarter
May 28
New
Jun 5
First Quarter
Jun 13
Full

Hourly Weather History & Observations

Time (EDT) Temp. Windchill Dew Point Humidity Pressure Visibility Wind Dir Wind Speed Gust Speed Precip Events Conditions
12:28 AM 64.0 °F - 62.1 °F 93% 29.90 in 10.0 mi Calm Calm - 0.00 in   Overcast
12:53 AM 64.0 °F - 62.1 °F 93% 29.88 in 10.0 mi Calm Calm - 0.00 in   Overcast
1:00 AM 64.0 °F - 62.1 °F 93% 29.89 in 10.0 mi Calm Calm - N/A   Overcast
1:13 AM 64.0 °F - 62.1 °F 93% 29.88 in 10.0 mi Calm Calm - N/A   Overcast
1:50 AM 64.4 °F - 62.6 °F 94% 29.87 in 10.0 mi NNW 3.5 mph - N/A   Overcast
1:53 AM 64.0 °F - 62.1 °F 93% 29.86 in 10.0 mi Calm Calm - N/A   Overcast
2:07 AM 64.0 °F - 62.1 °F 93% 29.87 in 10.0 mi NNE 4.6 mph - 0.00 in Rain Light Rain
2:28 AM 57.9 °F - 55.0 °F 90% 29.86 in 7.0 mi NNW 8.1 mph - 0.02 in Rain Light Rain
2:36 AM 55.9 °F - 53.1 °F 90% 29.86 in 9.0 mi NNW 10.4 mph - 0.02 in Rain Light Rain
2:53 AM 54.0 °F - 52.0 °F 93% 29.84 in 10.0 mi North 8.1 mph 16.1 mph 0.02 in Rain Light Rain
3:22 AM 54.0 °F - 51.1 °F 90% 29.89 in 1.8 mi Variable 3.5 mph 17.3 mph 0.17 in Rain Heavy Rain
3:31 AM 53.1 °F - 51.1 °F 93% 29.88 in 1.5 mi NNW 4.6 mph - 0.23 in Rain Heavy Rain
4:03 AM 52.0 °F - 50.0 °F 93% 29.87 in 3.0 mi Variable 3.5 mph - 0.03 in Rain Rain
4:53 AM 51.1 °F - 48.9 °F 92% 29.86 in 1.8 mi NNW 5.8 mph - 0.20 in Rain Heavy Rain
5:04 AM 51.1 °F - 48.9 °F 92% 29.86 in 2.5 mi North 9.2 mph - 0.06 in Rain Heavy Rain
5:13 AM 51.1 °F - 48.9 °F 92% 29.87 in 3.0 mi Variable 5.8 mph - 0.08 in Rain Rain
5:25 AM 51.1 °F - 48.0 °F 89% 29.85 in 3.0 mi Variable 4.6 mph - 0.12 in Rain Rain
5:36 AM 50.0 °F - 48.0 °F 93% 29.85 in 3.0 mi NNW 5.8 mph - 0.16 in Rain Heavy Rain
5:53 AM 50.0 °F - 46.9 °F 89% 29.85 in 2.5 mi North 6.9 mph - 0.22 in Rain Heavy Rain
6:04 AM 50.0 °F - 48.0 °F 93% 29.86 in 3.0 mi NNW 5.8 mph - 0.04 in Rain Rain
6:14 AM 50.0 °F - 48.0 °F 93% 29.86 in 2.5 mi Variable 3.5 mph - 0.09 in Rain Heavy Rain
6:28 AM 50.0 °F - 48.0 °F 93% 29.88 in 1.8 mi NW 6.9 mph - 0.16 in Rain Heavy Rain
6:45 AM 48.9 °F - 46.9 °F 93% 29.88 in 2.0 mi NW 6.9 mph - 0.23 in Rain Rain
6:53 AM 50.0 °F - 46.9 °F 89% 29.88 in 2.5 mi NNW 5.8 mph - 0.25 in Rain Rain
7:00 AM 50.0 °F - 46.9 °F 89% 29.89 in 2.0 mi NNW 3.5 mph - 0.02 in Rain Rain
7:10 AM 48.9 °F - 46.9 °F 93% 29.88 in 1.8 mi NW 5.8 mph - 0.05 in Rain Rain
7:13 AM 48.9 °F - 46.9 °F 93% 29.87 in 2.5 mi NW 6.9 mph - 0.06 in Rain Rain
7:22 AM 48.9 °F - 46.9 °F 93% 29.87 in 2.5 mi Variable 5.8 mph - 0.08 in Rain Rain
7:29 AM 50.0 °F - 48.0 °F 93% 29.87 in 2.5 mi Variable 3.5 mph - 0.10 in Rain Rain
7:48 AM 48.2 °F - 46.4 °F 93% 29.86 in 1.8 mi West 3.5 mph - 0.15 in Rain Rain
7:53 AM 50.0 °F - 46.9 °F 89% 29.86 in 1.5 mi West 4.6 mph - 0.17 in Rain Heavy Rain
8:12 AM 50.0 °F - 48.0 °F 93% 29.87 in 1.8 mi WSW 8.1 mph - 0.07 in Rain Rain
8:19 AM 50.0 °F - 48.0 °F 93% 29.88 in 2.5 mi Variable 3.5 mph - 0.08 in Rain Rain
8:24 AM 50.0 °F - 48.0 °F 93% 29.88 in 1.8 mi Variable 5.8 mph - 0.11 in Rain Heavy Rain
8:34 AM 50.0 °F - 46.9 °F 89% 29.89 in 1.8 mi SW 4.6 mph - 0.13 in Rain Rain
8:53 AM 50.0 °F - 46.9 °F 89% 29.90 in 1.8 mi Calm Calm - 0.20 in Rain Heavy Rain
9:01 AM 50.0 °F - 48.0 °F 93% 29.89 in 2.5 mi Calm Calm - 0.01 in Rain Rain
9:13 AM 50.0 °F - 48.0 °F 93% 29.88 in 4.0 mi NNW 3.5 mph - 0.03 in Rain Light Rain
9:27 AM 50.0 °F - 48.9 °F 96% 29.88 in 5.0 mi Variable 3.5 mph - 0.04 in Rain Light Rain
9:53 AM 51.1 °F - 48.0 °F 89% 29.88 in 10.0 mi NW 3.5 mph - 0.05 in   Overcast
9:57 AM 51.1 °F - 48.0 °F 89% 29.88 in 10.0 mi NW 3.5 mph - N/A   Overcast
10:46 AM 52.0 °F - 46.0 °F 80% 29.90 in 10.0 mi Variable 3.5 mph - N/A   Overcast
10:53 AM 52.0 °F - 46.9 °F 83% 29.90 in 10.0 mi West 6.9 mph - 0.00 in Rain Light Rain
11:11 AM 52.0 °F - 46.9 °F 83% 29.90 in 10.0 mi WNW 4.6 mph - 0.00 in   Overcast
11:53 AM 53.1 °F - 46.9 °F 80% 29.91 in 10.0 mi WNW 5.8 mph - 0.00 in   Overcast
12:53 PM 51.1 °F - 48.0 °F 89% 29.91 in 5.0 mi Variable 3.5 mph - N/A   Overcast
1:48 PM 51.8 °F - 46.4 °F 82% 29.91 in 10.0 mi WNW 8.1 mph - N/A   Overcast
1:53 PM 52.0 °F - 46.9 °F 83% 29.91 in 10.0 mi WNW 6.9 mph - N/A   Overcast
1:56 PM 52.0 °F - 46.9 °F 83% 29.91 in 10.0 mi WNW 6.9 mph - N/A   Overcast
2:53 PM 53.1 °F - 46.0 °F 77% 29.90 in 10.0 mi Variable 5.8 mph - N/A   Overcast
4:00 PM 54.0 °F - 46.9 °F 77% 29.90 in 10.0 mi Calm Calm - N/A   Overcast
4:18 PM 53.1 °F - 46.0 °F 77% 29.90 in 10.0 mi NW 4.6 mph - N/A   Overcast
4:53 PM 53.1 °F - 46.0 °F 77% 29.91 in 10.0 mi Variable 6.9 mph - N/A   Overcast
5:53 PM 51.1 °F - 43.0 °F 74% 29.91 in 10.0 mi NW 6.9 mph - N/A   Overcast
6:53 PM 52.0 °F - 43.0 °F 71% 29.92 in 10.0 mi NNW 3.5 mph - N/A   Overcast
7:53 PM 48.0 °F - 45.0 °F 89% 29.94 in 9.0 mi Variable 3.5 mph - N/A   Overcast
8:12 PM 48.9 °F - 45.0 °F 86% 29.95 in 9.0 mi Calm Calm - N/A   Overcast
8:53 PM 48.0 °F - 44.1 °F 86% 29.96 in 10.0 mi Calm Calm - N/A   Overcast
9:53 PM 46.9 °F - 39.0 °F 74% 29.99 in 10.0 mi NW 3.5 mph - N/A   Clear
11:53 PM 45.0 °F 43.5 °F 37.9 °F 76% 29.98 in 10.0 mi Variable 3.5 mph - N/A   Mostly Cloudy